Regional Weather Roundup
Issued by NWS

Home | Current Version | Previous Version | Graphics & Text | Print | Product List | Glossary On
Versions: 1 2 3 4 5 6 7 8 9 10 11 12 13 14 15 16 17 18 19 20 21 22 23 24 25 26 27 28 29 30 31 32 33 34 35 36 37 38 39 40 41 42 43 44 45 46 47 48 49 50
000
ASUS43 KMPX 291901
RWRMN
WEATHER ROUNDUP FOR MINNESOTA
NATIONAL WEATHER SERVICE TWIN CITIES/CHANHASSEN MN
200 PM CDT WED OCT 29 2014


NOTE: "FAIR" INDICATES FEW OR NO CLOUDS BELOW 12,000 FEET WITH NO
SIGNIFICANT WEATHER AND/OR OBSTRUCTIONS TO VISIBILITY. N/A MEANS
CURRENT SKY AND/OR WEATHER CONDITIONS ARE NOT AVAILABLE.

MNZ060>063-068>070-292000-
   Twin Cities Metro

CITY           SKY/WX    TMP DP  RH WIND       PRES   REMARKS
TWIN CITIES    CLOUDY    41  31  67 NW7       30.14F
ST PAUL        CLOUDY    43  31  62 VRB7      30.15F
CRYSTAL        CLOUDY    42  31  64 W8        30.13F
BLAINE         CLOUDY    43  34  70 W10       30.14S
LAKEVILLE      CLOUDY    39  30  70 W7        30.14F
EDEN PRAIRIE   CLOUDY    40  31  70 W10       30.13F
SOUTH ST PAUL  CLOUDY    44  31  61 W8        30.14F
LAKE ELMO      CLOUDY    43  32  65 NW5       30.14S
$$
MNZ001>005-007-008-013>017-022>024-027-028-292000-
   Northwest Minnesota

CITY           SKY/WX    TMP DP  RH WIND       PRES   REMARKS
BEMIDJI        CLOUDY    35  31  85 W7        30.07S WCI  29
HALLOCK          N/A     37  30  75 CALM      30.07F
ROSEAU         CLOUDY    37  32  81 SW7       30.07S
WARROAD        CLOUDY    37  34  87 W8        30.07S
THIEF RVR FALL CLOUDY    36  28  75 SW8       30.08F
CROOKSTON      CLOUDY    37  28  70 SW8       30.10F
FOSSTON        CLOUDY    34  30  86 CALM      30.09F
DETROIT LAKES  CLOUDY    36  30  80 SW3       30.10F
MOORHEAD       CLOUDY    39  30  70 W8        30.11F
PARK RAPIDS    CLOUDY    36  30  79 SW7       30.09F
MAHNOMEN       CLOUDY    35  29  79 SW5       30.10S WCI  31
$$
MNZ006-009>011-018-025>026-292000-
   North Central Minnesota

CITY           SKY/WX    TMP DP  RH WIND       PRES   REMARKS
BAUDETTE       CLOUDY    37  32  82 SW6       30.06F
FLAG ISLAND    CLOUDY    36  34  93 SW5       30.04F
INTL FALLS     CLOUDY    38  35  89 W8        30.05F
WASKISH        CLOUDY    37  34  87 SW9       30.07S
BIG FORK       CLOUDY    37  36  93 SW5       30.07F
LONGVILLE      CLOUDY    36  32  87 SW7       30.09F
GRAND RAPIDS   CLOUDY    36  32  87 W7        30.08F
CRANE LAKE     CLOUDY    37  36  93 CALM      30.07F
ORR            CLOUDY    37  34  87 W6        30.04S
COOK           CLOUDY    37  36  93 W8        30.07S
WALKER         CLOUDY    35  31  86 CALM      30.08F
$$
MNZ012-019>021-037-292000-
   Northeast Minnesota

CITY           SKY/WX    TMP DP  RH WIND       PRES   REMARKS
DULUTH         CLOUDY    41  33  73 NW8       30.06F
ELY            CLOUDY    37  34  87 W6        30.04F
HIBBING        CLOUDY    41  33  73 W6        30.06F
EVELETH        CLOUDY    39  34  81 W8        30.07S
DULUTH HARBOR  CLOUDY    45  36  70 W8        30.10S
TWO HARBORS    CLOUDY    45 N/A N/A NW6       30.05S
SILVER BAY     SUNNY     43  34  70 W3        30.04S
GRAND MARAIS     N/A     44  32  62 SW7       30.04S
G MARAIS ARPRT CLOUDY    39  28  65 W10       30.01S
$$
MNZ029>031-032-039>041-046>048-054>057-064-292000-
   West Central Minnesota

CITY           SKY/WX    TMP DP  RH WIND       PRES   REMARKS
FERGUS FALLS   PTSUNNY   37  27  65 S5        30.12F
WHEATON        SUNNY     37  28  70 CALM      30.13F
MORRIS         PTSUNNY   37  30  75 CALM      30.11F
ALEXANDRIA     CLOUDY    36  29  75 VRB5      30.12F
ELBOW LAKE     CLOUDY    38  30  73 SW7       30.10F
WADENA         CLOUDY    36  28  75 SW5       30.10F
GLENWOOD       MOSUNNY   37  30  75 CALM      30.12F
APPLETON       MOSUNNY   41  28  60 CALM      30.13F
BENSON         CLOUDY    39  30  70 N3        30.13F
ORTONVILLE     SUNNY     43  28  56 CALM      30.11F
MADISON        SUNNY     45  32  61 CALM      30.13F
WILLMAR        CLOUDY    39  30  70 W7        30.15F
$$
MNZ033>034-036-042>043-049>051-058-059-292000-
   Central Minnesota

CITY           SKY/WX    TMP DP  RH WIND       PRES   REMARKS
ST CLOUD       CLOUDY    41  31  67 NW6       30.13F
SAUK CENTRE    CLOUDY    37  30  76 SW7       30.13F
PAYNESVILLE    CLOUDY    36  30  79 SW6       30.14F
AITKIN         CLOUDY    39  32  75 W5        30.09F
PINE RIVER     CLOUDY    36  30  80 W5        30.12F
BRAINERD       CLOUDY    36  31  82 W8        30.11F
STAPLES        CLOUDY    36  30  80 W7        30.10F
LONG PRAIRIE   CLOUDY    36  30  80 W3        30.12F
LITTLE FALLS   CLOUDY    37  30  75 W7        30.12F
LITCHFIELD     CLOUDY    39  34  81 NW3       30.14F
BUFFALO        CLOUDY    40  31  71 SW7       30.15F
MAPLE LAKE     CLOUDY    41  34  74 SW6       30.15F
$$
MNZ037-044-045-052-053-292000-
   East Central Minnesota

CITY           SKY/WX    TMP DP  RH WIND       PRES   REMARKS
PRINCETON      CLOUDY    39  32  75 W8        30.14S
MORA           CLOUDY    37  32  81 W6        30.14S
CAMBRIDGE      CLOUDY    43  30  61 SW8       30.11S
RUSH CITY      CLOUDY    40  32  73 W6        30.12F
MOOSE LAKE     CLOUDY    41  32  70 W7        30.08F
HINCKLEY       CLOUDY    41  34  75 W7        30.11F
CLOQUET        CLOUDY    41  32  70 W8        30.08S
MCGREGOR       CLOUDY    37  32  81 W7        30.10F
$$
MNZ071>073-080-081-089-090-097-098-292000-
   Southwest Minnesota

CITY           SKY/WX    TMP DP  RH WIND       PRES   REMARKS
MONTEVIDEO     MOSUNNY   43  34  70 CALM      30.15F
GRANITE FALLS  PTSUNNY   41  31  68 W3        30.16F
CANBY          SUNNY     44  32  62 SE3       30.13F
MARSHALL       SUNNY     45  30  57 S6        30.12F
REDWOOD FALLS  MOSUNNY   44  31  60 W6        30.14F
OLIVIA         MOSUNNY   41  32  70 NW6       30.14F
PIPESTONE      SUNNY     46  30  53 SW6       30.11F
WINDOM         SUNNY     48  30  49 W3        30.13F
WORTHINGTON    SUNNY     46  30  53 SW6       30.14F
JACKSON        SUNNY     46  32  57 NW7       30.14F
TRACY          SUNNY     47  31  55 NW5       30.13F
SLAYTON        SUNNY     46  30  53 CALM      30.13F
$$
MNZ065>067-074>077-082>085-091>093-292000-
   South Central Minnesota

CITY           SKY/WX    TMP DP  RH WIND       PRES   REMARKS
MANKATO        CLOUDY    39  27  60 NW8       30.15F
NEW ULM        SUNNY     43  32  65 CALM      30.15F
ST JAMES       SUNNY     45  30  57 CALM      30.15F
FAIRMONT       MOSUNNY   46  30  53 W6        30.15F
GLENCOE        CLOUDY    41  33  74 W8        30.14F
FARIBAULT      CLOUDY    43  32  65 W5        30.14F
OWATONNA       SUNNY     41  30  65 W6        30.14F
WASECA         CLOUDY    41  28  60 SW6       30.16F
ALBERT LEA     CLOUDY    41  30  65 NW6       30.15S
$$
MNZ078>079-086>088-094>096-292000-
   Southeast Minnesota

CITY           SKY/WX    TMP DP  RH WIND       PRES   REMARKS
ROCHESTER      CLOUDY    42  31  64 W6        30.13F
RED WING       CLOUDY    45  28  53 NW7       30.13R
STANTON        CLOUDY    43  32  63 W9        30.13S
DODGE CENTER   CLOUDY    41  34  75 NW6       30.13F
WINONA         CLOUDY    45  32  61 W3        30.13F
AUSTIN         CLOUDY    43  32  65 CALM      30.13F
PRESTON        PTSUNNY   40  32  70 W6        30.13F
$$
ABBREVIATIONS USED IN REMARKS
   TC - TEMPERATURES IN CELSIUS
  WCI - WIND CHILL INDEX
   HX - HEAT INDEX
  VSB - VISIBILITY
$$



USA.gov is the U.S. government's official web portal to all federal, state and local government web resources and services.